Check out our new BloomSky Weather System.

Active alerts

Houston, TX
  Details for Houston, TX Dense Fog Advisory


Thunder radar  blitzortung!


Rain radar more information rain snow radar


Visit our other weather sites:

Template documentation
and downloads

And another site



Weather Underground History page Text

Daily Summary for October 8, 2017 Units:  English    Metric   Both
« Previous Day
Next Day »
Daily Weekly Monthly Yearly Custom
  High: Low: Average:
Temperature: 93.0 °F 70.2 °F 81.8 °F
Dew Point: 77.0 °F 69.3 °F 72.8 °F
Humidity: 98 % 51 % 76 %
Wind Speed: 6.0 mph 0.0 mph 0.7 mph
Wind Gust: 8.0 mph - -
Wind:- - SW
Pressure: 29.73 in 29.63 in -
Precipitation: 0.00 in    
Historical Graphs
 
 
Tabular Data for October 8, 2017
Time Temperature Dew Point Pressure Wind Wind Speed Wind Gust Humidity Rainfall Rate (Hourly)
00:08 78.6 °F 76.5 °F 29.71 in NW 2.0 mph 2.0 mph 93 % 0.00 in
00:13 78.6 °F 75.7 °F 29.71 in WNW 2.0 mph 4.0 mph 91 % 0.00 in
00:18 78.8 °F 75.6 °F 29.71 in NW 1.0 mph 5.0 mph 90 % 0.00 in
00:23 79.0 °F 75.4 °F 29.71 in WNW 2.0 mph 5.0 mph 89 % 0.00 in
00:28 79.0 °F 75.2 °F 29.71 in NW 1.0 mph 5.0 mph 88 % 0.00 in
00:33 79.0 °F 75.2 °F 29.71 in Calm   4.0 mph 88 % 0.00 in
00:38 79.0 °F 75.2 °F 29.70 in Calm   4.0 mph 88 % 0.00 in
00:43 79.0 °F 75.2 °F 29.70 in Calm   4.0 mph 88 % 0.00 in
00:49 78.6 °F 74.8 °F 29.70 in Calm   1.0 mph 88 % 0.00 in
00:54 78.4 °F 74.7 °F 29.70 in Calm   1.0 mph 88 % 0.00 in
00:59 78.4 °F 74.7 °F 29.70 in Calm   1.0 mph 88 % 0.00 in
01:04 78.1 °F 74.3 °F 29.70 in Calm   1.0 mph 88 % 0.00 in
01:09 77.9 °F 74.1 °F 29.70 in Calm   1.0 mph 88 % 0.00 in
01:14 77.5 °F 74.1 °F 29.70 in Calm   1.0 mph 89 % 0.00 in
01:24 77.0 °F 74.1 °F 29.69 in Calm     91 % 0.00 in
01:29 76.8 °F 73.9 °F 29.70 in Calm   1.0 mph 91 % 0.00 in
01:34 76.8 °F 73.9 °F 29.69 in Calm   1.0 mph 91 % 0.00 in
01:39 76.6 °F 73.8 °F 29.69 in Calm   1.0 mph 91 % 0.00 in
01:44 76.5 °F 73.9 °F 29.69 in Calm   1.0 mph 92 % 0.00 in
01:49 76.3 °F 73.8 °F 29.69 in Calm   1.0 mph 92 % 0.00 in
01:54 76.3 °F 73.8 °F 29.70 in Calm   1.0 mph 92 % 0.00 in
01:59 76.1 °F 73.6 °F 29.70 in Calm   1.0 mph 92 % 0.00 in
02:04 75.9 °F 73.0 °F 29.70 in Calm   1.0 mph 91 % 0.00 in
02:09 75.9 °F 73.0 °F 29.70 in Calm   1.0 mph 91 % 0.00 in
02:14 75.9 °F 73.0 °F 29.70 in Calm   1.0 mph 91 % 0.00 in
02:19 75.9 °F 72.9 °F 29.70 in Calm   1.0 mph 90 % 0.00 in
02:24 75.7 °F 72.7 °F 29.69 in Calm   1.0 mph 90 % 0.00 in
02:29 75.7 °F 72.7 °F 29.69 in Calm   1.0 mph 90 % 0.00 in
02:30 75.7 °F 72.3 °F 29.69 in Calm   1.0 mph 89 % 0.00 in
02:35 75.6 °F 72.1 °F 29.70 in Calm   1.0 mph 89 % 0.00 in
02:40 75.4 °F 72.3 °F 29.69 in Calm   1.0 mph 90 % 0.00 in
02:45 75.0 °F 72.0 °F 29.69 in Calm     90 % 0.00 in
02:50 74.8 °F 72.0 °F 29.69 in Calm     91 % 0.00 in
02:55 74.7 °F 71.8 °F 29.70 in Calm     91 % 0.00 in
03:00 74.7 °F 72.1 °F 29.70 in Calm   1.0 mph 92 % 0.00 in
03:05 74.5 °F 72.0 °F 29.69 in Calm   1.0 mph 92 % 0.00 in
03:10 74.1 °F 71.6 °F 29.69 in Calm   1.0 mph 92 % 0.00 in
03:15 74.1 °F 72.0 °F 29.69 in Calm   1.0 mph 93 % 0.00 in
03:20 74.1 °F 71.6 °F 29.69 in Calm   1.0 mph 92 % 0.00 in
03:25 73.9 °F 71.4 °F 29.69 in Calm   1.0 mph 92 % 0.00 in
03:27 73.9 °F 71.4 °F 29.68 in Calm   1.0 mph 92 % 0.00 in
03:37 73.6 °F 71.4 °F 29.68 in Calm     93 % 0.00 in
03:42 73.6 °F 71.4 °F 29.68 in Calm     93 % 0.00 in
03:47 73.4 °F 71.6 °F 29.68 in Calm   1.0 mph 94 % 0.00 in
03:52 73.2 °F 71.4 °F 29.68 in Calm   1.0 mph 94 % 0.00 in
03:57 73.2 °F 71.4 °F 29.68 in Calm   1.0 mph 94 % 0.00 in
04:07 73.2 °F 71.4 °F 29.68 in Calm   2.0 mph 94 % 0.00 in
04:12 73.0 °F 71.2 °F 29.68 in Calm   2.0 mph 94 % 0.00 in
04:17 72.9 °F 71.1 °F 29.67 in Calm   2.0 mph 94 % 0.00 in
04:22 72.7 °F 70.9 °F 29.67 in Calm     94 % 0.00 in
04:27 72.7 °F 70.9 °F 29.67 in Calm     94 % 0.00 in
04:32 72.5 °F 71.1 °F 29.67 in Calm   1.0 mph 95 % 0.00 in
04:37 72.5 °F 71.1 °F 29.67 in Calm   1.0 mph 95 % 0.00 in
04:42 72.5 °F 71.1 °F 29.67 in Calm   1.0 mph 95 % 0.00 in
04:47 72.3 °F 70.9 °F 29.68 in Calm   1.0 mph 95 % 0.00 in
04:52 72.1 °F 70.3 °F 29.68 in Calm   1.0 mph 94 % 0.00 in
04:57 72.0 °F 70.5 °F 29.68 in Calm   1.0 mph 95 % 0.00 in
05:02 72.0 °F 70.5 °F 29.68 in Calm     95 % 0.00 in
05:07 71.8 °F 70.3 °F 29.68 in Calm     95 % 0.00 in
05:12 71.8 °F 70.5 °F 29.68 in Calm     96 % 0.00 in
05:22 71.4 °F 70.2 °F 29.68 in Calm     96 % 0.00 in
05:27 71.4 °F 70.2 °F 29.68 in Calm     96 % 0.00 in
05:32 71.2 °F 70.0 °F 29.68 in Calm     96 % 0.00 in
05:37 71.2 °F 70.0 °F 29.68 in Calm     96 % 0.00 in
05:42 71.2 °F 70.0 °F 29.68 in Calm     96 % 0.00 in
05:47 71.1 °F 69.8 °F 29.68 in Calm     96 % 0.00 in
05:52 71.1 °F 69.8 °F 29.68 in Calm     96 % 0.00 in
05:57 70.9 °F 70.0 °F 29.68 in Calm     97 % 0.00 in
06:12 70.9 °F 70.0 °F 29.69 in Calm   1.0 mph 97 % 0.00 in
06:17 70.9 °F 70.0 °F 29.69 in Calm     97 % 0.00 in
06:22 71.1 °F 70.2 °F 29.69 in Calm   1.0 mph 97 % 0.00 in
06:27 70.9 °F 70.0 °F 29.69 in Calm   1.0 mph 97 % 0.00 in
06:32 70.7 °F 69.8 °F 29.69 in Calm   1.0 mph 97 % 0.00 in
06:37 70.5 °F 69.6 °F 29.70 in Calm     97 % 0.00 in
06:42 70.5 °F 69.6 °F 29.70 in Calm     97 % 0.00 in
06:47 70.3 °F 69.4 °F 29.70 in Calm     97 % 0.00 in
06:52 70.2 °F 69.3 °F 29.70 in Calm     97 % 0.00 in
06:57 70.2 °F 69.3 °F 29.70 in Calm     97 % 0.00 in
07:02 70.2 °F 69.3 °F 29.70 in Calm     97 % 0.00 in
07:07 70.2 °F 69.3 °F 29.70 in Calm     97 % 0.00 in
07:12 70.2 °F 69.3 °F 29.70 in Calm     97 % 0.00 in
07:17 70.2 °F 69.3 °F 29.70 in Calm     97 % 0.00 in
07:22 70.3 °F 69.8 °F 29.71 in Calm   1.0 mph 98 % 0.00 in
07:32 70.5 °F 69.6 °F 29.71 in Calm   1.0 mph 97 % 0.00 in
07:37 70.7 °F 69.8 °F 29.70 in Calm     97 % 0.00 in
07:42 70.7 °F 69.8 °F 29.70 in Calm     97 % 0.00 in
07:47 70.9 °F 70.0 °F 29.70 in Calm     97 % 0.00 in
07:52 70.9 °F 70.0 °F 29.70 in Calm     97 % 0.00 in
07:54 71.1 °F 70.2 °F 29.71 in Calm     97 % 0.00 in
07:59 71.2 °F 70.3 °F 29.70 in Calm   1.0 mph 97 % 0.00 in
08:04 71.4 °F 70.5 °F 29.71 in Calm   1.0 mph 97 % 0.00 in
08:09 71.8 °F 70.9 °F 29.70 in NNE 1.0 mph 1.0 mph 97 % 0.00 in
08:14 72.0 °F 70.7 °F 29.70 in Calm   1.0 mph 96 % 0.00 in
08:19 72.1 °F 70.9 °F 29.70 in Calm   1.0 mph 96 % 0.00 in
08:25 72.3 °F 71.1 °F 29.70 in Calm   1.0 mph 96 % 0.00 in
08:30 72.7 °F 71.2 °F 29.71 in Calm   1.0 mph 95 % 0.00 in
08:35 73.0 °F 71.6 °F 29.71 in Calm   1.0 mph 95 % 0.00 in
08:40 73.6 °F 71.8 °F 29.71 in NW 1.0 mph 3.0 mph 94 % 0.00 in
08:45 74.1 °F 72.3 °F 29.71 in Calm   3.0 mph 94 % 0.00 in
08:50 74.8 °F 72.3 °F 29.71 in NW 1.0 mph 3.0 mph 92 % 0.00 in
08:55 75.4 °F 72.5 °F 29.71 in NNW 1.0 mph 3.0 mph 91 % 0.00 in
09:00 75.9 °F 72.5 °F 29.71 in NNW 1.0 mph 3.0 mph 89 % 0.00 in
09:05 76.5 °F 72.7 °F 29.71 in NW 1.0 mph 3.0 mph 88 % 0.00 in
09:10 77.4 °F 73.6 °F 29.72 in NW 2.0 mph 3.0 mph 88 % 0.00 in
09:20 79.2 °F 73.9 °F 29.72 in NW 1.0 mph 3.0 mph 84 % 0.00 in
09:25 79.7 °F 73.8 °F 29.72 in NNW 2.0 mph 4.0 mph 82 % 0.00 in
09:30 79.9 °F 73.6 °F 29.72 in NW 2.0 mph 4.0 mph 81 % 0.00 in
09:35 79.9 °F 73.6 °F 29.72 in NW 1.0 mph 4.0 mph 81 % 0.00 in
09:40 80.1 °F 73.4 °F 29.72 in North 2.0 mph 4.0 mph 80 % 0.00 in
09:45 80.4 °F 74.1 °F 29.73 in NNW 1.0 mph 4.0 mph 81 % 0.00 in
09:50 80.8 °F 73.9 °F 29.73 in Calm   4.0 mph 80 % 0.00 in
09:55 81.7 °F 75.2 °F 29.73 in Calm   4.0 mph 81 % 0.00 in
10:00 82.9 °F 76.1 °F 29.73 in Calm   3.0 mph 80 % 0.00 in
10:05 83.7 °F 76.1 °F 29.73 in Calm   3.0 mph 78 % 0.00 in
10:10 83.7 °F 74.8 °F 29.73 in Calm   3.0 mph 75 % 0.00 in
10:15 83.8 °F 75.0 °F 29.73 in Calm   3.0 mph 75 % 0.00 in
10:25 85.5 °F 75.7 °F 29.73 in Calm   3.0 mph 73 % 0.00 in
10:30 86.2 °F 76.1 °F 29.73 in Calm   2.0 mph 72 % 0.00 in
10:35 87.1 °F 76.5 °F 29.73 in WNW 1.0 mph 2.0 mph 71 % 0.00 in
10:40 86.9 °F 75.6 °F 29.73 in SW 1.0 mph 2.0 mph 69 % 0.00 in
10:45 86.9 °F 75.6 °F 29.73 in Calm   4.0 mph 69 % 0.00 in
10:50 87.1 °F 75.2 °F 29.72 in NNE 2.0 mph 4.0 mph 68 % 0.00 in
10:55 87.1 °F 74.8 °F 29.72 in WNW 1.0 mph 4.0 mph 67 % 0.00 in
11:00 87.1 °F 75.2 °F 29.72 in Calm   3.0 mph 68 % 0.00 in
11:05 87.1 °F 74.3 °F 29.72 in NNW 1.0 mph 4.0 mph 66 % 0.00 in
11:10 87.1 °F 75.2 °F 29.72 in Calm   4.0 mph 68 % 0.00 in
11:15 87.4 °F 73.2 °F 29.72 in NW 2.0 mph 4.0 mph 63 % 0.00 in
11:20 87.6 °F 73.9 °F 29.72 in NNE 1.0 mph 4.0 mph 64 % 0.00 in
11:25 88.2 °F 73.9 °F 29.72 in WNW 3.0 mph 4.0 mph 63 % 0.00 in
11:30 88.0 °F 74.7 °F 29.72 in NE 3.0 mph 4.0 mph 65 % 0.00 in
11:35 88.0 °F 74.7 °F 29.72 in East 1.0 mph 4.0 mph 65 % 0.00 in
11:40 88.2 °F 75.4 °F 29.72 in WNW 1.0 mph 4.0 mph 66 % 0.00 in
11:45 88.9 °F 77.0 °F 29.72 in SSW 1.0 mph 3.0 mph 68 % 0.00 in
11:50 89.4 °F 76.6 °F 29.72 in SW 1.0 mph 3.0 mph 66 % 0.00 in
11:55 90.0 °F 76.1 °F 29.72 in NW 2.0 mph 3.0 mph 64 % 0.00 in
12:00 90.3 °F 75.9 °F 29.71 in SSE 1.0 mph 3.0 mph 63 % 0.00 in
12:11 90.9 °F 76.5 °F 29.71 in SE 2.0 mph 3.0 mph 63 % 0.00 in
12:16 91.8 °F 75.9 °F 29.71 in SSW 1.0 mph 4.0 mph 60 % 0.00 in
12:21 92.1 °F 76.3 °F 29.71 in Calm   4.0 mph 60 % 0.00 in
12:26 92.5 °F 75.6 °F 29.71 in Calm   4.0 mph 58 % 0.00 in
12:31 92.8 °F 75.9 °F 29.71 in South 4.0 mph 4.0 mph 58 % 0.00 in
12:36 92.8 °F 75.4 °F 29.70 in NW 3.0 mph 5.0 mph 57 % 0.00 in
12:41 92.8 °F 73.8 °F 29.70 in WNW 3.0 mph 5.0 mph 54 % 0.00 in
12:46 91.9 °F 74.5 °F 29.70 in ESE 1.0 mph 5.0 mph 57 % 0.00 in
12:51 91.9 °F 76.1 °F 29.70 in SSE 3.0 mph 4.0 mph 60 % 0.00 in
13:01 91.6 °F 74.7 °F 29.69 in West 2.0 mph 6.0 mph 58 % 0.00 in
13:06 91.6 °F 74.1 °F 29.69 in North 1.0 mph 6.0 mph 57 % 0.00 in
13:11 91.0 °F 72.7 °F 29.69 in Calm   4.0 mph 55 % 0.00 in
13:16 90.3 °F 73.6 °F 29.68 in NW 3.0 mph 4.0 mph 58 % 0.00 in
13:21 89.8 °F 73.6 °F 29.68 in WSW 2.0 mph 6.0 mph 59 % 0.00 in
13:26 89.6 °F 73.9 °F 29.68 in Calm   6.0 mph 60 % 0.00 in
13:31 89.6 °F 73.4 °F 29.68 in WSW 1.0 mph 6.0 mph 59 % 0.00 in
13:36 89.4 °F 74.1 °F 29.67 in SSW 2.0 mph 4.0 mph 61 % 0.00 in
13:41 89.8 °F 75.0 °F 29.67 in SSW 2.0 mph 4.0 mph 62 % 0.00 in
13:46 90.3 °F 74.5 °F 29.67 in Calm   4.0 mph 60 % 0.00 in
13:51 91.0 °F 73.8 °F 29.67 in Calm   4.0 mph 57 % 0.00 in
13:56 91.6 °F 73.0 °F 29.66 in SSW 1.0 mph 4.0 mph 55 % 0.00 in
14:01 91.9 °F 73.9 °F 29.66 in SSW 1.0 mph 5.0 mph 56 % 0.00 in
14:06 91.9 °F 74.5 °F 29.66 in Calm   5.0 mph 57 % 0.00 in
14:11 92.3 °F 73.8 °F 29.65 in Calm   5.0 mph 55 % 0.00 in
14:16 92.1 °F 73.0 °F 29.65 in Calm   6.0 mph 54 % 0.00 in
14:21 91.6 °F 73.0 °F 29.65 in SSE 2.0 mph 6.0 mph 55 % 0.00 in
14:26 91.2 °F 72.9 °F 29.65 in West 2.0 mph 6.0 mph 55 % 0.00 in
14:31 90.9 °F 72.5 °F 29.65 in NNW 2.0 mph 4.0 mph 55 % 0.00 in
14:36 90.7 °F 73.9 °F 29.65 in NW 2.0 mph 4.0 mph 58 % 0.00 in
14:41 90.9 °F 73.6 °F 29.65 in WSW 1.0 mph 4.0 mph 57 % 0.00 in
14:46 91.8 °F 73.2 °F 29.65 in Calm   4.0 mph 55 % 0.00 in
14:51 92.5 °F 75.0 °F 29.65 in West 2.0 mph 4.0 mph 57 % 0.00 in
14:56 92.1 °F 73.6 °F 29.64 in Calm   4.0 mph 55 % 0.00 in
15:01 91.6 °F 73.0 °F 29.65 in Calm   4.0 mph 55 % 0.00 in
15:06 91.2 °F 73.4 °F 29.65 in Calm   4.0 mph 56 % 0.00 in
15:11 90.9 °F 71.4 °F 29.64 in NW 1.0 mph 3.0 mph 53 % 0.00 in
15:16 91.0 °F 73.2 °F 29.64 in NW 3.0 mph 3.0 mph 56 % 0.00 in
15:21 90.9 °F 71.4 °F 29.64 in WNW 1.0 mph 5.0 mph 53 % 0.00 in
15:26 91.0 °F 74.1 °F 29.64 in Calm   5.0 mph 58 % 0.00 in
15:31 91.9 °F 73.9 °F 29.64 in NW 2.0 mph 5.0 mph 56 % 0.00 in
15:36 91.8 °F 72.1 °F 29.64 in NW 3.0 mph 6.0 mph 53 % 0.00 in
15:41 91.8 °F 72.7 °F 29.64 in Calm   6.0 mph 54 % 0.00 in
15:46 92.3 °F 72.1 °F 29.64 in NW 3.0 mph 6.0 mph 52 % 0.00 in
15:51 92.5 °F 73.4 °F 29.64 in NNW 1.0 mph 4.0 mph 54 % 0.00 in
15:56 92.5 °F 72.9 °F 29.64 in Calm   3.0 mph 53 % 0.00 in
16:01 92.3 °F 73.2 °F 29.64 in NW 1.0 mph 3.0 mph 54 % 0.00 in
16:06 92.7 °F 73.6 °F 29.64 in NNW 1.0 mph 3.0 mph 54 % 0.00 in
16:11 93.0 °F 73.4 °F 29.64 in SSW 3.0 mph 4.0 mph 53 % 0.00 in
16:16 92.7 °F 72.5 °F 29.64 in SSW 3.0 mph 4.0 mph 52 % 0.00 in
16:21 92.1 °F 74.1 °F 29.63 in South 2.0 mph 5.0 mph 56 % 0.00 in
16:26 92.5 °F 73.4 °F 29.63 in WNW 1.0 mph 5.0 mph 54 % 0.00 in
16:31 92.8 °F 72.0 °F 29.63 in SW 3.0 mph 5.0 mph 51 % 0.00 in
16:41 91.9 °F 71.8 °F 29.64 in NW 3.0 mph 5.0 mph 52 % 0.00 in
16:46 91.6 °F 72.5 °F 29.63 in South 1.0 mph 5.0 mph 54 % 0.00 in
16:51 91.4 °F 72.3 °F 29.63 in SSW 2.0 mph 4.0 mph 54 % 0.00 in
16:56 91.6 °F 72.5 °F 29.63 in SSW 1.0 mph 4.0 mph 54 % 0.00 in
17:01 91.9 °F 72.3 °F 29.63 in SSW 2.0 mph 4.0 mph 53 % 0.00 in
17:06 91.9 °F 71.8 °F 29.63 in South 4.0 mph 4.0 mph 52 % 0.00 in
17:11 91.6 °F 72.0 °F 29.63 in South 1.0 mph 8.0 mph 53 % 0.00 in
17:16 90.9 °F 72.0 °F 29.63 in SSW 1.0 mph 8.0 mph 54 % 0.00 in
17:21 90.7 °F 71.8 °F 29.63 in Calm   8.0 mph 54 % 0.00 in
17:26 90.9 °F 72.0 °F 29.63 in Calm   5.0 mph 54 % 0.00 in
17:31 90.9 °F 72.0 °F 29.63 in South 1.0 mph 5.0 mph 54 % 0.00 in
17:36 90.7 °F 71.8 °F 29.63 in SW 1.0 mph 5.0 mph 54 % 0.00 in
17:41 90.7 °F 72.3 °F 29.63 in South 1.0 mph 5.0 mph 55 % 0.00 in
17:46 90.3 °F 72.5 °F 29.63 in SW 1.0 mph 4.0 mph 56 % 0.00 in
17:51 90.1 °F 72.3 °F 29.63 in South 2.0 mph 4.0 mph 56 % 0.00 in
17:56 90.0 °F 72.1 °F 29.63 in Calm   4.0 mph 56 % 0.00 in
18:01 89.8 °F 71.4 °F 29.63 in SE 1.0 mph 4.0 mph 55 % 0.00 in
18:06 89.6 °F 71.2 °F 29.63 in South 2.0 mph 3.0 mph 55 % 0.00 in
18:11 89.2 °F 70.9 °F 29.63 in SSW 1.0 mph 3.0 mph 55 % 0.00 in
18:16 89.1 °F 71.2 °F 29.63 in Calm   3.0 mph 56 % 0.00 in
18:21 89.1 °F 71.8 °F 29.64 in Calm   3.0 mph 57 % 0.00 in
18:26 88.9 °F 71.6 °F 29.64 in Calm   3.0 mph 57 % 0.00 in
18:31 88.5 °F 71.8 °F 29.64 in Calm   1.0 mph 58 % 0.00 in
18:36 88.3 °F 71.6 °F 29.64 in Calm   1.0 mph 58 % 0.00 in
18:41 88.2 °F 72.0 °F 29.64 in Calm   1.0 mph 59 % 0.00 in
18:46 88.0 °F 71.8 °F 29.64 in Calm   1.0 mph 59 % 0.00 in
18:51 87.6 °F 72.0 °F 29.64 in Calm   1.0 mph 60 % 0.00 in
18:56 87.1 °F 72.9 °F 29.64 in Calm   1.0 mph 63 % 0.00 in
19:01 86.5 °F 72.5 °F 29.64 in Calm   1.0 mph 63 % 0.00 in
19:06 86.4 °F 72.3 °F 29.64 in WSW 1.0 mph 1.0 mph 63 % 0.00 in
19:11 86.2 °F 72.1 °F 29.64 in Calm   1.0 mph 63 % 0.00 in
19:16 85.8 °F 71.8 °F 29.65 in Calm   1.0 mph 63 % 0.00 in
19:21 85.5 °F 72.0 °F 29.65 in Calm   1.0 mph 64 % 0.00 in
19:26 84.9 °F 71.8 °F 29.65 in Calm   1.0 mph 65 % 0.00 in
19:31 84.4 °F 71.8 °F 29.65 in Calm   1.0 mph 66 % 0.00 in
19:36 83.8 °F 71.8 °F 29.65 in Calm     67 % 0.00 in
19:41 83.5 °F 72.3 °F 29.65 in Calm     69 % 0.00 in
19:46 83.1 °F 72.0 °F 29.65 in Calm     69 % 0.00 in
19:51 83.1 °F 72.7 °F 29.65 in Calm   1.0 mph 71 % 0.00 in
19:56 82.9 °F 72.5 °F 29.65 in Calm   1.0 mph 71 % 0.00 in
20:01 82.8 °F 72.3 °F 29.65 in Calm   1.0 mph 71 % 0.00 in
20:06 82.6 °F 72.7 °F 29.65 in Calm   1.0 mph 72 % 0.00 in
20:11 82.4 °F 72.9 °F 29.65 in Calm   1.0 mph 73 % 0.00 in
20:16 82.0 °F 73.4 °F 29.66 in Calm   1.0 mph 75 % 0.00 in
20:21 82.0 °F 73.8 °F 29.66 in Calm   1.0 mph 76 % 0.00 in
20:26 81.9 °F 73.9 °F 29.66 in Calm   1.0 mph 77 % 0.00 in
20:31 81.9 °F 74.3 °F 29.66 in Calm   1.0 mph 78 % 0.00 in
20:36 81.9 °F 74.3 °F 29.66 in Calm   1.0 mph 78 % 0.00 in
20:41 81.9 °F 74.3 °F 29.66 in ESE 1.0 mph 3.0 mph 78 % 0.00 in
20:47 81.9 °F 73.6 °F 29.67 in SSW 3.0 mph 3.0 mph 76 % 0.00 in
20:52 81.9 °F 73.6 °F 29.67 in SSE 1.0 mph 3.0 mph 76 % 0.00 in
20:57 81.9 °F 73.9 °F 29.67 in SSW 2.0 mph 4.0 mph 77 % 0.00 in
21:02 82.0 °F 74.1 °F 29.67 in South 2.0 mph 5.0 mph 77 % 0.00 in
21:07 81.9 °F 74.3 °F 29.67 in SSE 1.0 mph 5.0 mph 78 % 0.00 in
21:12 81.9 °F 74.3 °F 29.68 in South 1.0 mph 5.0 mph 78 % 0.00 in
21:17 81.9 °F 74.3 °F 29.68 in SSW 1.0 mph 3.0 mph 78 % 0.00 in
21:27 81.3 °F 73.4 °F 29.68 in SSE 4.0 mph 4.0 mph 77 % 0.00 in
21:37 81.7 °F 73.4 °F 29.68 in South 3.0 mph 6.0 mph 76 % 0.00 in
21:42 81.9 °F 73.2 °F 29.68 in SSE 6.0 mph 6.0 mph 75 % 0.00 in
21:47 81.9 °F 73.2 °F 29.68 in SE 1.0 mph 6.0 mph 75 % 0.00 in
21:52 81.9 °F 73.6 °F 29.69 in South 4.0 mph 6.0 mph 76 % 0.00 in
21:57 81.9 °F 73.6 °F 29.69 in SSE 3.0 mph 6.0 mph 76 % 0.00 in
22:02 81.9 °F 73.6 °F 29.69 in South 2.0 mph 7.0 mph 76 % 0.00 in
22:07 81.7 °F 73.4 °F 29.69 in SSW 6.0 mph 7.0 mph 76 % 0.00 in
22:12 81.7 °F 73.8 °F 29.69 in SSE 3.0 mph 7.0 mph 77 % 0.00 in
22:17 81.5 °F 73.6 °F 29.69 in SSE 2.0 mph 6.0 mph 77 % 0.00 in
22:22 81.3 °F 73.4 °F 29.69 in SE 1.0 mph 6.0 mph 77 % 0.00 in
22:26 81.1 °F 73.6 °F 29.70 in SE 1.0 mph 5.0 mph 78 % 0.00 in
22:27 81.1 °F 73.6 °F 29.70 in SE 1.0 mph 5.0 mph 78 % 0.00 in
22:32 81.0 °F 73.4 °F 29.70 in SSE 1.0 mph 4.0 mph 78 % 0.00 in
22:36 80.8 °F 73.6 °F 29.70 in SSE 1.0 mph 3.0 mph 79 % 0.00 in
22:42 80.4 °F 73.8 °F 29.70 in SSE 1.0 mph 3.0 mph 80 % 0.00 in
22:47 80.4 °F 73.8 °F 29.70 in SSE 1.0 mph 4.0 mph 80 % 0.00 in
22:52 80.2 °F 73.6 °F 29.70 in South 1.0 mph 4.0 mph 80 % 0.00 in
22:57 80.2 °F 73.6 °F 29.70 in SSE 1.0 mph 4.0 mph 80 % 0.00 in
23:02 80.1 °F 73.8 °F 29.70 in SSE 1.0 mph 3.0 mph 81 % 0.00 in
23:07 79.9 °F 73.6 °F 29.71 in SE 1.0 mph 3.0 mph 81 % 0.00 in
23:12 79.7 °F 73.4 °F 29.71 in SSE 1.0 mph 3.0 mph 81 % 0.00 in
23:17 79.5 °F 73.6 °F 29.71 in Calm   2.0 mph 82 % 0.00 in
23:22 79.2 °F 73.2 °F 29.71 in Calm   2.0 mph 82 % 0.00 in
23:27 78.8 °F 73.2 °F 29.71 in SSE 1.0 mph 1.0 mph 83 % 0.00 in
23:32 78.4 °F 73.2 °F 29.71 in Calm   1.0 mph 84 % 0.00 in
23:37 78.3 °F 73.0 °F 29.71 in Calm   1.0 mph 84 % 0.00 in
23:42 78.1 °F 73.2 °F 29.71 in SSE 1.0 mph 1.0 mph 85 % 0.00 in
23:47 77.7 °F 73.2 °F 29.71 in Calm   1.0 mph 86 % 0.00 in
23:52 77.5 °F 73.0 °F 29.71 in SSE 1.0 mph 1.0 mph 86 % 0.00 in
23:57 77.5 °F 73.0 °F 29.71 in Calm   1.0 mph 86 % 0.00 in
Spring, Texas: Villages of Bridgestone
Compliments of Weather Underground - 2.75 mb

Script developed by  Jim McMurry - jmcmurry@mwt.net Adapted for the template by  Wim van der Kuil - Leuven-Template.eu

You find our weather info also at:

UK Metoffice

WeatherCloud

Weather Underground

Mid-South Weather Network

AWEKAS

Citizen Weather Observer Program (CWOP)

HAMweather, WeatherForYou, PWS Weather

Equipment we use:

Weather-station
Davis Vantage Vue

Weather-program
Meteohub

Weather-server
Debian 7.9 x86 (Guest)

Provider
DreamHost

Davis Vantage Vue

Meteohub

Debian 7.9 x86 (Guest)

DreamHost